SCP
0 0 0 0 0 0 0 0 0 0 0 0 0 0 0 0 0 0 0 0 0 0 0 0 0 0 0 0 0 0 0 0
0 0 0 0 0 0 0 0 0 0 0 0 0 0 0 0 0 0 0 0 0 0 0 0 0 0 0 0 0 0 0 0
0 0 0 0 0 0 0 0 0 0 0 0 0 0 0 0 0 0 0 0 0 0 0 0 0 0 0 0 0 0 0 0
0 0 0 0 0 0 0 0 0 0 0 0 0 0 0 0 0 0 0 0 0 0 0 0 0 0 0 0 0 0 0 0
0 0 0 0 0 0 0 0 0 0 0 0 0 0 0 0 0 0 0 0 0 0 0 0 0 0 0 0 0 0 0 0
0 0 0 0 0 0 0 0 0 0 0 0 0 0 0 0 0 0 0 0 0 0 0 0 0 0 0 0 0 0 0 0
0 0 0 0 0 0 0 0 0 0 0 0 0 0 0 0 0 0 0 0 0 0 0 0 0 0 0 0 0 0 0 0
0 0 0 0 0 0 0 0 0 0 0 0 0 0 0 0 0 0 0 0 0 0 0 0 0 0 0 0 0 0 0 0
0 0 0 0 0 0 0 0 0 0 0 0 0 0 0 0 0 0 0 0 0 0 0 0 0 0 0 0 0 0 0 0
0 0 0 0 0 0 0 0 0 0 0 0 0 0 0 0 0 0 0 0 0 0 0 0 0 0 0 0 0 0 0 0
0 0 0 0 0 0 0 0 0 0 0 0 0 0 0 0 0 0 0 0 0 0 0 0 0 0 0 0 0 0 0 0
0 0 0 0 0 0 0 0 0 0 0 0 0 0 0 0 0 0 0 0 0 0 0 0 0 0 0 0 0 0 0 0
0 0 0 0 0 0 0 0 0 0 0 0 0 0 0 0 0 0 0 0 0 0 0 0 0 0 0 0 0 0 0 0
0 0 0 0 0 0 0 0 0 0 0 0 0 0 0 0 0 0 0 0 0 0 0 0 0 0 0 0 0 0 0 0
0 0 0 0 0 0 0 0 0 0 0 0 0 0 0 0 0 0 0 0 0 0 0 0 0 0 0 0 0 0 0 0
0 0 0 0 0 0 0 0 0 0 0 0 0 0 0 0 0 0 0 0 0 0 0 0 0 0 0 0 0 0 0 0
0 0 0 0 0 0 0 0 0 0 0 0 0 0 0 0 0 0 0 0 0 0 0 0 0 0 0 0 0 0 0 0
0 0 0 0 0 0 0 0 0 0 0 0 0 0 0 0 0 0 0 0 0 0 0 0 0 0 0 0 0 0 0 0
0 0 0 0 0 0 0 0 0 0 0 0 0 0 0 0 0 0 0 0 0 0 0 0 0 0 0 0 0 0 0 0
0 0 0 0 0 0 0 0 0 0 0 0 0 0 0 0 0 0 0 0 0 0 0 0 0 0 0 0 0 0 0 0
Wind_Speed_500mb
60 56 55 50 44 52 64 77 86 90 93 85 79 74 74 77 81 80 79 84 84 83 83 82 79 78 80 84 86 92 93 95
37 43 45 45 46 46 55 62 69 75 84 92 83 76 76 79 79 78 78 78 80 80 78 77 77 76 78 81 82 88 89 95
29 31 32 34 30 35 45 46 49 54 66 78 81 81 81 80 78 75 75 73 74 73 73 74 75 74 75 75 75 79 81 83
14 10 20 26 22 20 21 28 38 48 57 65 70 72 73 73 72 71 70 68 69 70 72 71 71 69 68 70 69 76 77 79
18 13 12 8 6 5 9 17 26 35 44 51 57 60 64 66 68 68 65 66 66 67 64 65 65 64 65 66 71 77 75 83
21 18 16 12 10 10 12 14 17 21 26 31 38 45 52 58 62 64 65 63 60 61 60 60 58 64 61 71 64 80 73 63
25 22 19 15 17 21 24 27 31 31 30 32 34 35 37 39 42 46 51 54 54 55 58 57 56 58 50 56 58 54 68 64
27 29 22 20 27 33 36 39 40 40 38 37 35 34 32 32 33 33 34 34 34 39 44 47 50 57 59 63 64 62 59 57
37 30 28 30 36 41 40 39 40 39 38 36 33 31 29 28 26 25 25 28 34 40 45 50 55 58 55 54 58 61 62 61
39 34 36 35 36 35 33 32 32 31 30 28 26 25 25 25 23 22 21 24 27 30 32 35 37 41 45 44 47 55 56 56
46 41 36 33 32 32 31 29 27 24 23 23 23 23 22 21 19 19 18 18 16 15 18 19 22 25 26 28 30 34 37 41
45 39 35 32 30 27 24 20 18 16 14 13 12 11 11 12 14 13 14 12 13 14 14 16 18 22 23 25 28 30 30 27
42 35 30 26 22 20 16 13 10 6 3 1 1 3 5 7 10 12 11 10 11 12 12 15 17 18 21 22 23 23 21 21
40 36 32 28 26 22 20 17 13 9 5 4 5 6 8 9 10 12 13 13 14 14 13 15 16 17 17 17 17 17 15 16
41 38 35 33 28 23 21 19 15 10 7 5 4 4 5 6 8 9 10 12 13 13 13 13 14 15 15 18 18 18 17 17
38 36 38 35 30 27 23 19 14 9 6 5 5 7 8 8 7 8 9 10 10 11 11 11 13 14 15 15 15 14 13 10
45 42 40 36 32 28 24 22 18 12 10 9 8 7 7 9 9 9 9 8 9 10 11 14 15 16 17 15 13 11 11 13
45 41 38 34 31 28 25 22 17 14 12 12 12 12 12 13 14 13 11 10 10 11 12 13 14 16 16 14 13 12 12 11
41 39 35 31 29 27 23 20 17 13 10 11 12 13 15 16 16 16 15 14 13 12 12 12 11 9 8 7 9 10 14 12
37 37 33 29 27 24 19 18 15 13 11 11 11 12 12 13 13 14 15 16 16 16 15 15 15 14 11 9 11 12 14 14
Wind_Direction_500mb
258 256 252 250 244 241 244 246 247 247 244 247 250 251 253 256 257 261 264 265 267 268 269 270 270 268 266 265 265 263 263 262
252 250 249 249 244 242 243 245 246 246 247 245 249 254 257 257 260 263 266 269 271 273 273 273 273 273 272 270 270 269 268 267
242 248 246 246 244 240 240 240 244 247 249 249 252 255 258 261 264 267 270 272 273 275 276 275 275 276 275 276 275 274 275 278
182 214 235 238 239 238 241 245 243 244 247 249 253 257 260 264 266 268 270 272 271 273 272 275 275 276 278 277 277 276 271 269
168 151 127 115 120 170 224 242 247 246 247 248 251 253 256 260 263 267 267 265 267 269 272 274 275 275 274 277 275 274 277 275
200 204 199 205 222 234 245 249 250 251 251 251 252 253 254 256 258 260 260 260 262 265 267 269 271 274 277 273 281 280 274 278
228 224 215 226 253 264 267 265 264 264 264 261 259 259 260 261 260 261 261 261 260 259 259 264 265 265 270 274 269 274 272 281
237 232 237 256 269 272 272 270 268 267 267 265 262 262 262 263 264 264 263 263 261 259 259 258 261 266 266 266 271 275 275 278
227 225 247 264 270 273 275 272 268 265 263 262 260 259 257 256 258 259 260 259 257 258 259 262 266 268 270 272 273 274 274 276
219 235 250 257 261 266 269 268 268 265 259 255 252 252 252 253 256 262 265 267 271 272 272 272 274 270 269 274 276 278 281 284
219 229 233 237 246 253 258 262 262 259 255 250 245 242 243 247 252 258 258 269 283 289 298 307 303 300 302 300 295 293 291 293
215 211 209 217 226 233 239 244 245 240 236 236 241 251 263 272 281 285 289 288 293 296 293 296 302 300 298 296 292 300 305 296
203 201 202 201 202 200 193 189 174 157 164 158 20 323 315 316 314 315 311 303 305 310 317 313 309 309 310 307 312 321 328 328
196 192 187 182 176 171 157 147 134 124 105 64 26 0 345 333 318 305 301 301 306 311 316 314 312 310 309 308 314 323 328 317
185 179 175 170 167 163 155 147 143 143 131 110 78 26 5 356 344 335 328 318 307 300 292 286 284 289 298 302 305 308 304 307
172 165 160 158 158 155 152 148 136 136 121 101 59 36 25 25 20 13 6 359 339 332 319 316 306 300 295 290 286 288 296 298
161 160 156 154 153 151 147 138 133 126 98 75 67 73 89 85 73 54 39 18 359 358 345 337 330 321 310 297 292 296 302 324
156 152 149 149 146 142 138 123 111 96 88 89 92 93 81 73 68 65 66 47 26 11 360 348 340 334 337 330 318 318 319 308
151 147 143 139 140 131 123 114 104 105 115 123 120 107 94 82 72 65 61 55 43 32 23 18 12 359 348 322 317 307 311 310
146 142 140 141 135 125 122 116 125 126 132 122 104 89 74 65 56 47 41 36 34 27 23 18 6 7 356 326 311 298 293 290
Wind_Speed_850mb
60 56 55 50 44 52 64 77 86 90 93 85 79 74 74 77 81 80 79 84 84 83 83 82 79 78 80 84 86 92 93 95
37 43 45 45 46 46 55 62 69 75 84 92 83 76 76 79 79 78 78 78 80 80 78 77 77 76 78 81 82 88 89 95
29 31 32 34 30 35 45 46 49 54 66 78 81 81 81 80 78 75 75 73 74 73 73 74 75 74 75 75 75 79 81 83
14 10 20 26 22 20 21 28 38 48 57 65 70 72 73 73 72 71 70 68 69 70 72 71 71 69 68 70 69 76 77 79
18 13 12 8 6 5 9 17 26 35 44 51 57 60 64 66 68 68 65 66 66 67 64 65 65 64 65 66 71 77 75 83
21 18 16 12 10 10 12 14 17 21 26 31 38 45 52 58 62 64 65 63 60 61 60 60 58 64 61 71 64 80 73 63
25 22 19 15 17 21 24 27 31 31 30 32 34 35 37 39 42 46 51 54 54 55 58 57 56 58 50 56 58 54 68 64
27 29 22 20 27 33 36 39 40 40 38 37 35 34 32 32 33 33 34 34 34 39 44 47 50 57 59 63 64 62 59 57
37 30 28 30 36 41 40 39 40 39 38 36 33 31 29 28 26 25 25 28 34 40 45 50 55 58 55 54 58 61 62 61
39 34 36 35 36 35 33 32 32 31 30 28 26 25 25 25 23 22 21 24 27 30 32 35 37 41 45 44 47 55 56 56
46 41 36 33 32 32 31 29 27 24 23 23 23 23 22 21 19 19 18 18 16 15 18 19 22 25 26 28 30 34 37 41
45 39 35 32 30 27 24 20 18 16 14 13 12 11 11 12 14 13 14 12 13 14 14 16 18 22 23 25 28 30 30 27
42 35 30 26 22 20 16 13 10 6 3 1 1 3 5 7 10 12 11 10 11 12 12 15 17 18 21 22 23 23 21 21
40 36 32 28 26 22 20 17 13 9 5 4 5 6 8 9 10 12 13 13 14 14 13 15 16 17 17 17 17 17 15 16
41 38 35 33 28 23 21 19 15 10 7 5 4 4 5 6 8 9 10 12 13 13 13 13 14 15 15 18 18 18 17 17
38 36 38 35 30 27 23 19 14 9 6 5 5 7 8 8 7 8 9 10 10 11 11 11 13 14 15 15 15 14 13 10
45 42 40 36 32 28 24 22 18 12 10 9 8 7 7 9 9 9 9 8 9 10 11 14 15 16 17 15 13 11 11 13
45 41 38 34 31 28 25 22 17 14 12 12 12 12 12 13 14 13 11 10 10 11 12 13 14 16 16 14 13 12 12 11
41 39 35 31 29 27 23 20 17 13 10 11 12 13 15 16 16 16 15 14 13 12 12 12 11 9 8 7 9 10 14 12
37 37 33 29 27 24 19 18 15 13 11 11 11 12 12 13 13 14 15 16 16 16 15 15 15 14 11 9 11 12 14 14
Wind_Direction_850mb
258 256 252 250 244 241 244 246 247 247 244 247 250 251 253 256 257 261 264 265 267 268 269 270 270 268 266 265 265 263 263 262
252 250 249 249 244 242 243 245 246 246 247 245 249 254 257 257 260 263 266 269 271 273 273 273 273 273 272 270 270 269 268 267
242 248 246 246 244 240 240 240 244 247 249 249 252 255 258 261 264 267 270 272 273 275 276 275 275 276 275 276 275 274 275 278
182 214 235 238 239 238 241 245 243 244 247 249 253 257 260 264 266 268 270 272 271 273 272 275 275 276 278 277 277 276 271 269
168 151 127 115 120 170 224 242 247 246 247 248 251 253 256 260 263 267 267 265 267 269 272 274 275 275 274 277 275 274 277 275
200 204 199 205 222 234 245 249 250 251 251 251 252 253 254 256 258 260 260 260 262 265 267 269 271 274 277 273 281 280 274 278
228 224 215 226 253 264 267 265 264 264 264 261 259 259 260 261 260 261 261 261 260 259 259 264 265 265 270 274 269 274 272 281
237 232 237 256 269 272 272 270 268 267 267 265 262 262 262 263 264 264 263 263 261 259 259 258 261 266 266 266 271 275 275 278
227 225 247 264 270 273 275 272 268 265 263 262 260 259 257 256 258 259 260 259 257 258 259 262 266 268 270 272 273 274 274 276
219 235 250 257 261 266 269 268 268 265 259 255 252 252 252 253 256 262 265 267 271 272 272 272 274 270 269 274 276 278 281 284
219 229 233 237 246 253 258 262 262 259 255 250 245 242 243 247 252 258 258 269 283 289 298 307 303 300 302 300 295 293 291 293
215 211 209 217 226 233 239 244 245 240 236 236 241 251 263 272 281 285 289 288 293 296 293 296 302 300 298 296 292 300 305 296
203 201 202 201 202 200 193 189 174 157 164 158 20 323 315 316 314 315 311 303 305 310 317 313 309 309 310 307 312 321 328 328
196 192 187 182 176 171 157 147 134 124 105 64 26 0 345 333 318 305 301 301 306 311 316 314 312 310 309 308 314 323 328 317
185 179 175 170 167 163 155 147 143 143 131 110 78 26 5 356 344 335 328 318 307 300 292 286 284 289 298 302 305 308 304 307
172 165 160 158 158 155 152 148 136 136 121 101 59 36 25 25 20 13 6 359 339 332 319 316 306 300 295 290 286 288 296 298
161 160 156 154 153 151 147 138 133 126 98 75 67 73 89 85 73 54 39 18 359 358 345 337 330 321 310 297 292 296 302 324
156 152 149 149 146 142 138 123 111 96 88 89 92 93 81 73 68 65 66 47 26 11 360 348 340 334 337 330 318 318 319 308
151 147 143 139 140 131 123 114 104 105 115 123 120 107 94 82 72 65 61 55 43 32 23 18 12 359 348 322 317 307 311 310
146 142 140 141 135 125 122 116 125 126 132 122 104 89 74 65 56 47 41 36 34 27 23 18 6 7 356 326 311 298 293 290